EW4529 Weather Reports


Display with metric or nautical units.
time (UTC)temp
F
wind
direction
speed
MPH
gust
MPH
rain 1hr
in
rain 24hr
in
rain mn
in
humidity
%
barometer
mb
20260510090329 51 35 0.0 1.0 0.00 0.00 0.00 97 1011.8
20260510085309 50 352 1.0 5.0 0.00 0.00 0.00 97 1012.0
20260510084307 50 30 0.0 2.0 0.00 0.00 0.00 97 1011.9
20260510083323 50 22 0.0 2.0 0.00 0.00 0.00 97 1011.7
20260510082324 50 150 0.0 1.0 0.00 0.00 0.00 97 1011.1
20260510081346 50 9 0.0 0.0 0.00 0.00 0.00 97 1011.2
20260510080329 50 10 0.0 1.0 0.00 0.00 0.00 97 1011.3
20260510075330 50 8 0.0 1.0 0.00 0.00 0.00 97 1011.2
20260510074329 50 349 0.0 1.0 0.00 0.00 0.00 97 1011.2
20260510073328 49 13 0.0 1.0 0.00 0.00 0.00 97 1011.1
20260510072312 49 122 0.0 0.0 0.00 0.00 0.00 97 1011.0
20260510071335 49 123 0.0 0.0 0.00 0.00 0.00 97 1010.9
20260510070311 49 122 0.0 0.0 0.00 0.00 0.00 97 1010.7
20260510065341 48 122 0.0 0.0 0.00 0.00 0.00 97 1010.6
20260510064312 49 123 0.0 0.0 0.00 0.00 0.00 97 1010.5
20260510063313 49 122 0.0 0.0 0.00 0.00 0.00 97 1010.6
20260510062314 49 122 0.0 0.0 0.00 0.00 0.00 97 1010.7
20260510061308 49 122 0.0 0.0 0.00 0.00 0.00 97 1010.6
20260510060310 49 122 0.0 0.0 0.00 0.00 0.00 96 1010.7
20260510055310 49 122 0.0 0.0 0.00 0.00 0.00 97 1010.8
20260510054332 49 122 0.0 0.0 0.00 0.00 0.00 96 1010.9
20260510053326 49 122 0.0 0.0 0.00 0.00 0.00 96 1010.9
20260510052308 50 122 0.0 0.0 0.00 0.00 0.00 96 1011.0
20260510051312 49 123 0.0 0.0 0.00 0.00 0.00 96 1011.1
20260510050325 49 122 0.0 0.0 0.00 0.00 0.00 96 1011.1
20260510045323 50 122 0.0 0.0 0.00 0.00 0.00 96 1011.2
20260510044327 50 123 0.0 0.0 0.00 0.00 0.00 96 1011.2
20260510043349 50 122 0.0 0.0 0.00 0.00 0.00 96 1011.3
20260510042321 50 122 0.0 0.0 0.00 0.00 0.00 96 1011.4
20260510041323 50 122 0.0 0.0 0.00 0.00 0.00 96 1011.4
20260510040319 51 122 0.0 0.0 0.00 0.00 0.00 96 1011.4
20260510035318 51 122 0.0 0.0 0.00 0.00 0.00 96 1011.4
20260510034320 51 122 0.0 0.0 0.00 0.00 0.00 95 1011.2
20260510033323 51 122 0.0 0.0 0.00 0.00 0.00 95 1011.2
20260510032316 51 123 0.0 0.0 0.00 0.00 0.00 95 1011.0
20260510031316 52 123 0.0 0.0 0.00 0.00 0.00 95 1010.9
20260510030341 52 122 0.0 0.0 0.00 0.00 0.00 95 1010.8
20260510025318 52 123 0.0 0.0 0.00 0.00 0.00 95 1010.8
20260510024310 52 123 0.0 0.0 0.00 0.00 0.00 94 1010.8
20260510023311 52 122 0.0 0.0 0.00 0.00 0.00 94 1010.9
20260510022313 52 123 0.0 0.0 0.00 0.00 0.00 94 1010.8
20260510021319 53 122 0.0 0.0 0.00 0.00 0.00 94 1010.8
20260510020314 53 122 0.0 0.0 0.00 0.00 0.00 93 1010.7
20260510015317 53 122 0.0 0.0 0.00 0.00 0.00 93 1010.7
20260510014309 53 122 0.0 0.0 0.00 0.00 0.00 92 1010.6
20260510013309 53 122 0.0 0.0 0.00 0.00 0.00 92 1010.7
20260510012330 54 122 0.0 0.0 0.00 0.00 0.00 91 1010.6
20260510011309 54 122 0.0 0.0 0.00 0.00 0.00 91 1010.6
20260510010331 55 123 0.0 0.0 0.00 0.00 0.00 91 1010.5
20260510005307 55 123 0.0 1.0 0.00 0.00 0.00 91 1010.5
20260510004331 55 108 0.0 0.0 0.00 0.00 0.00 90 1010.3
20260510003325 55 108 0.0 0.0 0.00 0.00 0.00 89 1010.3
20260510002324 56 108 0.0 0.0 0.00 0.00 0.00 89 1010.3
20260510001326 56 108 0.0 0.0 0.00 0.00 0.00 88 1010.3
20260510000319 57 108 0.0 0.0 0.00 0.00 0.00 86 1010.3
20260509235320 57 108 0.0 1.0 0.00 0.00 0.00 85 1010.2
20260509234323 58 174 0.0 0.0 0.00 0.00 0.00 83 1010.3
20260509233325 58 174 0.0 0.0 0.00 0.00 0.00 81 1010.2
20260509232327 59 174 0.0 0.0 0.00 0.00 0.00 79 1010.1
20260509231329 60 174 0.0 0.0 0.00 0.00 0.00 79 1010.0
20260509230308 60 172 0.0 0.0 0.00 0.00 0.00 78 1009.9
20260509225333 60 172 0.0 1.0 0.00 0.00 0.00 77 1010.0
20260509224308 60 148 0.0 1.0 0.00 0.00 0.00 78 1010.0
20260509223334 60 148 0.0 1.0 0.00 0.00 0.00 79 1010.1
20260509222313 60 143 0.0 3.0 0.00 0.00 0.00 79 1010.2
20260509221336 60 158 0.0 2.0 0.00 0.00 0.00 80 1010.1
20260509220341 59 11 0.0 0.0 0.00 0.00 0.00 80 1010.3
20260509215340 59 51 0.0 2.0 0.00 0.00 0.00 81 1010.2
20260509214322 59 130 0.0 2.0 0.00 0.00 0.00 80 1010.3
20260509213322 59 339 0.0 1.0 0.00 0.00 0.00 81 1010.4
20260509212324 59 351 0.0 1.0 0.00 0.00 0.00 80 1010.5
20260509211308 59 4 0.0 2.0 0.00 0.00 0.00 81 1010.5
20260509210310 59 324 0.0 1.0 0.00 0.00 0.00 80 1010.3
20260509205313 59 65 0.0 2.0 0.00 0.00 0.00 79 1010.4
20260509204315 60 12 0.0 3.0 0.00 0.00 0.00 78 1010.3
20260509203313 61 191 1.0 6.0 0.00 0.00 0.00 76 1010.2
20260509202311 61 254 0.0 4.0 0.00 0.00 0.00 79 1010.2
20260509201308 60 316 1.0 6.0 0.00 0.00 0.00 81 1010.1
20260509200316 60 6 1.0 5.0 0.00 0.00 0.00 81 1010.1
20260509195313 59 6 1.0 7.0 0.00 0.00 0.00 82 1010.4
20260509194309 60 349 2.0 6.0 0.00 0.00 0.00 79 1010.4
20260509193321 60 316 2.0 4.0 0.00 0.00 0.00 82 1010.6
20260509192317 59 353 0.0 4.0 0.00 0.00 0.00 84 1010.8
20260509191314 59 144 2.0 8.0 0.00 0.00 0.00 84 1011.0
20260509190330 59 349 1.0 4.0 0.00 0.00 0.00 84 1011.2
20260509185323 59 339 0.0 5.0 0.00 0.00 0.00 82 1011.1
20260509184312 59 338 1.0 3.0 0.00 0.00 0.00 80 1011.1
20260509183311 59 318 3.0 7.0 0.00 0.00 0.00 78 1011.2
20260509182327 60 304 2.0 6.0 0.00 0.00 0.00 77 1011.3
20260509181329 61 140 3.0 12.0 0.00 0.00 0.00 75 1011.4
20260509180317 61 328 2.0 6.0 0.00 0.00 0.00 71 1011.4
20260509175335 62 24 2.0 5.0 0.00 0.00 0.00 70 1011.3
20260509174311 62 42 1.0 4.0 0.00 0.00 0.00 72 1011.2
20260509173349 63 354 1.0 5.0 0.00 0.00 0.00 72 1010.9
20260509172346 63 29 0.0 4.0 0.00 0.00 0.00 69 1011.0
20260509171339 64 337 1.0 5.0 0.00 0.00 0.00 68 1011.1
20260509170316 64 133 0.0 4.0 0.00 0.00 0.00 70 1011.2
20260509165331 64 30 0.0 7.0 0.00 0.00 0.00 68 1011.3
20260509164319 64 206 1.0 5.0 0.00 0.00 0.00 66 1011.2
20260509163325 64 342 2.0 6.0 0.00 0.00 0.00 67 1011.3
20260509162320 64 267 0.0 3.0 0.00 0.00 0.00 67 1011.3
20260509161320 64 330 0.0 3.0 0.00 0.00 0.00 69 1011.5
20260509160330 64 340 0.0 3.0 0.00 0.00 0.00 67 1011.7
20260509155338 64 360 0.0 3.0 0.00 0.00 0.00 68 1011.8
20260509154332 65 136 0.0 2.0 0.00 0.00 0.00 68 1011.9
20260509153322 65 283 0.0 1.0 0.00 0.00 0.00 67 1012.0
20260509152317 64 16 0.0 2.0 0.00 0.00 0.00 67 1012.2
20260509151315 64 94 0.0 3.0 0.00 0.00 0.00 69 1012.2
20260509150308 63 113 1.0 3.0 0.00 0.00 0.00 67 1012.1
20260509145307 64 337 0.0 3.0 0.00 0.00 0.00 68 1012.1
20260509144323 64 328 1.0 4.0 0.00 0.00 0.00 67 1012.0
20260509143320 64 311 1.0 10.0 0.00 0.00 0.00 69 1011.9
20260509142321 64 119 1.0 3.0 0.00 0.00 0.00 69 1011.9
20260509141314 63 243 1.0 5.0 0.00 0.00 0.00 70 1011.8
20260509134322 62 155 0.0 4.0 0.00 0.00 0.00 73 1011.8
20260509133315 62 335 1.0 8.0 0.00 0.00 0.00 76 1011.8
20260509132311 61 72 0.0 5.0 0.00 0.00 0.00 76 1011.8
20260509131326 61 4 1.0 7.0 0.00 0.00 0.00 77 1011.8
20260509130316 61 222 1.0 7.0 0.00 0.00 0.00 77 1011.9
20260509125311 61 31 1.0 5.0 0.00 0.00 0.00 79 1011.9
20260509124356 60 170 2.0 9.0 0.00 0.00 0.00 78 1012.1
20260509123326 60 135 2.0 6.0 0.00 0.00 0.00 79 1012.0
20260509122324 59 147 1.0 5.0 0.00 0.00 0.00 79 1012.0
20260509121320 59 151 1.0 3.0 0.00 0.00 0.00 80 1012.0
20260509120313 58 21 2.0 4.0 0.00 0.00 0.00 80 1012.0
20260509115309 57 139 0.0 4.0 0.00 0.00 0.00 81 1011.9
20260509114325 57 125 0.0 7.0 0.00 0.00 0.00 81 1012.0
20260509113315 56 44 0.0 1.0 0.00 0.00 0.00 81 1011.9
20260509112312 56 137 0.0 3.0 0.00 0.00 0.00 81 1011.9
20260509111312 56 79 0.0 1.0 0.00 0.00 0.00 81 1012.0
20260509110331 56 175 0.0 0.0 0.00 0.00 0.00 81 1011.9
20260509105328 56 103 0.0 0.0 0.00 0.00 0.00 81 1011.9
20260509104318 56 63 0.0 2.0 0.00 0.00 0.00 81 1011.9
20260509103317 55 123 0.0 1.0 0.00 0.00 0.00 80 1011.9
20260509102334 55 115 0.0 0.0 0.00 0.00 0.00 80 1011.8
20260509101312 55 330 0.0 1.0 0.00 0.00 0.00 79 1011.8
20260509100322 55 326 0.0 2.0 0.00 0.00 0.00 78 1011.8
20260509095348 55 359 0.0 2.0 0.00 0.00 0.00 78 1011.7
20260509094343 55 141 0.0 0.0 0.00 0.00 0.00 77 1011.7
20260509093312 55 148 0.0 1.0 0.00 0.00 0.00 76 1011.7
20260509092311 56 117 0.0 1.0 0.00 0.00 0.00 76 1011.7
20260509091326 56 125 0.0 1.0 0.00 0.00 0.00 74 1011.7